Vorticity
9 8 10 9 1 6 13 -5 2 9 17 23 6 2 -1 17 -4 -3 42 6 11 5 5 3 3 5 6 4 1 1 4 3 2 0 2 13 11 12 12 12 12 9 5 4 5 6 7 8 9
9 7 9 9 -1 -0 9 6 10 18 7 2 13 2 4 13 -4 28 20 9 6 3 5 3 5 5 3 2 1 3 4 2 -1 2 16 10 11 7 4 4 5 7 8 7 6 7 6 6 6
9 9 11 1 12 6 11 16 -1 19 27 5 -8 20 3 -5 -4 45 -5 15 3 6 4 3 4 4 2 4 4 4 1 -0 5 18 9 9 5 6 7 7 7 7 8 7 7 7 7 7 6
9 9 3 -3 9 1 21 12 14 12 -11 -16 -17 -19 -3 21 18 8 1 19 4 4 2 3 3 2 3 6 2 -0 1 12 19 7 8 6 6 7 6 4 3 4 4 4 5 6 5 6 6
9 6 -2 9 12 -3 -3 -0 -14 -10 11 26 2 21 14 -4 2 9 15 14 4 4 3 5 3 2 5 2 -0 3 13 18 5 8 7 8 6 3 5 5 5 4 4 4 5 5 6 6 6
2 -1 12 3 17 7 12 26 0 7 -8 -9 13 5 3 21 15 11 9 10 3 1 3 5 4 3 2 -0 3 11 12 5 7 7 7 3 3 3 3 3 3 3 3 3 3 5 6 6 7
0 1 13 17 10 18 11 9 2 25 -8 3 6 8 -2 18 6 15 6 11 5 0 3 4 5 3 -0 2 10 13 9 8 7 7 3 2 3 2 1 3 3 4 3 3 3 6 6 6 9
4 -2 17 13 11 18 10 8 -1 17 9 13 8 1 15 12 12 12 13 7 4 3 4 6 3 -0 2 8 14 9 8 7 6 4 4 3 1 0 2 3 3 2 1 2 2 4 5 7 7
13 -5 1 -1 10 7 12 -0 -2 -1 -8 17 10 4 17 19 14 8 2 5 5 5 6 3 0 1 3 12 9 9 9 7 6 4 2 1 1 2 4 4 4 3 2 2 1 4 6 6 6
9 6 -9 32 -6 -3 -45 1 0 21 5 14 1 3 21 27 11 9 7 8 10 6 3 1 1 2 11 13 10 10 9 6 2 1 2 1 1 3 4 5 4 2 2 3 3 4 4 3 3
13 2 14 39 25 11 27 13 -3 -1 24 13 21 23 17 9 7 8 9 9 5 2 3 8 17 20 13 10 9 10 6 3 1 2 1 0 2 3 5 6 4 2 3 4 5 5 4 3 3
-2 13 21 40 18 -3 22 2 13 8 2 13 18 15 15 13 10 7 0 6 5 10 17 15 15 9 9 9 9 5 3 2 2 2 2 2 1 5 5 4 3 3 4 5 6 6 5 2 2
1 22 24 4 -3 4 7 14 6 2 7 22 18 18 14 8 7 6 2 4 12 5 7 6 8 9 6 5 4 3 2 1 2 5 -1 3 1 7 8 3 2 4 5 9 6 3 4 5 2
7 -4 15 21 6 11 3 9 11 -2 14 10 4 1 7 12 12 15 18 10 2 2 -1 -1 0 5 6 4 3 -2 6 3 7 -5 5 1 6 5 2 1 3 3 3 5 -0 5 6 6 7
4 21 17 34 -11 -3 1 -3 11 12 5 -3 -1 4 2 10 0 4 3 3 -1 1 -1 1 -1 1 1 4 4 6 2 1 -11 -13 19 -5 6 5 3 5 4 4 9 -0 21 -6 10 5 -11
10 14 -4 14 17 17 5 4 4 12 -3 2 2 4 2 2 1 5 2 1 3 1 -0 0 2 1 2 -0 1 3 -4 -25 30 5 2 6 3 2 0 -1 16 -4 -3 30 -12 10 -3 4 -1
10 14 2 2 1 8 -8 20 5 9 5 -0 0 6 3 2 4 1 2 5 2 3 2 2 0 5 4 8 4 13 -3 15 7 8 9 4 2 5 12 17 -5 9 8 -3 5 5 4 4 5
7 13 16 5 -4 4 17 -8 -1 10 8 3 0 4 3 4 4 2 4 2 2 -0 2 3 4 6 9 35 16 21 19 12 6 4 6 8 9 9 8 5 5 5 5 4 4 7 7 7 7
8 2 5 5 20 -1 -2 7 12 21 14 2 3 0 1 3 3 4 4 7 2 4 2 11 24 28 21 15 8 4 9 10 12 11 12 9 7 4 3 5 9 8 10 11 10 10 11 10 10
9 9 24 25 11 8 5 2 4 6 21 3 2 2 1 1 5 13 23 30 32 26 20 13 16 20 8 7 6 13 7 3 2 2 3 1 1 4 13 14 13 11 6 9 10 9 10 10 8
11 12 10 17 12 8 11 6 9 9 16 6 3 4 6 13 18 15 10 4 6 9 10 16 5 5 12 9 3 -1 2 3 2 3 1 1 7 10 7 8 7 8 10 10 9 9 9 9 9
8 11 8 11 0 -1 4 8 20 8 13 3 6 9 15 14 14 14 13 4 5 12 13 8 -1 9 1 3 3 -2 2 -0 1 2 5 7 6 7 8 8 9 9 8 9 9 8 9 12 10
12 7 4 6 4 4 8 5 17 11 7 6 9 12 10 11 11 6 3 5 10 7 -5 -2 -8 -13 8 10 1 -3 -0 -2 -2 4 7 5 6 9 9 9 8 8 4 8 12 13 14 15 18
12 7 5 7 10 11 11 -6 27 15 22 16 11 7 9 5 1 3 6 5 5 -1 -3 -36 16 11 -3 3 -0 0 1 1 -3 9 6 8 9 9 9 8 6 6 12 12 13 11 12 14 19
7 13 9 9 8 9 11 12 -13 -8 20 23 16 10 6 4 3 -0 -3 -4 12 20 29 21 10 3 3 7 11 1 3 -3 11 9 9 8 7 6 7 7 10 12 11 8 9 11 12 12 16
9 9 -2 8 7 8 9 14 14 8 11 15 12 9 8 4 1 -1 9 -1 18 -0 4 7 9 2 -4 12 2 1 -1 11 9 9 6 5 6 8 9 9 9 8 9 11 12 16 18 10 21
18 8 15 4 10 6 6 15 11 11 17 10 7 10 10 5 2 8 2 3 9 12 -5 4 9 18 1 8 -10 3 10 8 4 3 6 8 8 8 9 8 9 12 12 15 17 13 3 32 -2
-2 15 8 11 6 7 12 13 -2 3 7 17 9 12 8 3 -0 4 7 5 4 8 3 13 -5 8 5 -8 4 9 8 5 7 9 7 8 10 10 9 12 14 16 17 16 3 12 33 7 17
14 7 3 9 3 8 7 17 -0 15 8 12 15 7 1 0 -2 5 5 8 2 1 6 -1 4 10 -4 10 14 7 4 8 6 7 9 11 10 10 11 13 14 16 8 14 13 20 13 17 5
6 4 3 -0 18 5 6 14 16 3 21 10 5 3 2 4 1 3 6 3 7 2 7 9 6 -1 12 14 6 12 9 7 10 11 10 9 10 12 13 16 19 18 19 7 14 9 10 9 2
Height
3155 3156 3158 3159 3163 3160 3160 3162 3161 3164 3162 3160 3163 3164 3167 3168 3171 3175 3170 3173 3178 3182 3184 3186 3187 3190 3192 3194 3196 3197 3198 3199 3199 3199 3198 3197 3195 3194 3193 3192 3192 3192 3191 3190 3188 3188 3187 3186 3185
3154 3155 3157 3157 3159 3158 3160 3162 3160 3163 3163 3164 3165 3167 3167 3167 3168 3170 3172 3175 3178 3181 3185 3187 3189 3191 3193 3195 3197 3197 3199 3199 3199 3198 3198 3197 3196 3195 3194 3193 3193 3193 3191 3190 3188 3187 3187 3186 3186
3152 3153 3156 3156 3156 3156 3158 3159 3158 3160 3163 3164 3163 3167 3167 3167 3170 3171 3175 3179 3179 3181 3184 3187 3190 3192 3194 3196 3197 3198 3198 3197 3198 3197 3197 3197 3196 3196 3194 3193 3192 3191 3190 3190 3188 3186 3186 3185 3185
3150 3153 3156 3154 3154 3156 3157 3158 3159 3159 3162 3166 3168 3168 3168 3169 3168 3170 3173 3177 3180 3181 3185 3188 3190 3192 3194 3196 3197 3197 3197 3197 3197 3197 3197 3196 3196 3195 3194 3194 3193 3192 3191 3189 3188 3186 3184 3183 3183
3150 3151 3152 3153 3153 3155 3156 3158 3159 3162 3163 3163 3169 3167 3169 3171 3170 3170 3174 3177 3180 3181 3185 3188 3190 3192 3194 3196 3196 3196 3197 3196 3196 3196 3196 3196 3195 3194 3193 3194 3192 3191 3191 3189 3187 3186 3185 3183 3181
3149 3151 3151 3152 3152 3153 3155 3157 3160 3161 3162 3168 3166 3163 3165 3165 3168 3171 3174 3176 3178 3182 3185 3187 3190 3192 3194 3195 3196 3195 3196 3197 3196 3195 3195 3195 3194 3194 3194 3193 3192 3191 3190 3188 3187 3186 3182 3182 3179
3148 3150 3150 3151 3151 3152 3154 3157 3161 3160 3164 3166 3163 3165 3166 3164 3167 3169 3172 3175 3178 3181 3184 3188 3191 3192 3193 3195 3195 3195 3195 3195 3195 3195 3195 3194 3193 3194 3193 3193 3193 3190 3188 3187 3184 3184 3181 3179 3177
3148 3150 3149 3151 3152 3153 3154 3157 3162 3163 3162 3161 3162 3164 3164 3164 3167 3169 3171 3175 3178 3181 3184 3188 3190 3192 3193 3194 3193 3194 3194 3194 3194 3194 3194 3193 3193 3193 3193 3192 3191 3189 3188 3187 3183 3183 3180 3177 3175
3147 3150 3149 3152 3152 3153 3156 3157 3160 3161 3162 3161 3161 3162 3164 3165 3167 3170 3173 3176 3179 3182 3186 3188 3190 3191 3192 3192 3192 3193 3193 3194 3195 3194 3194 3193 3193 3192 3191 3190 3189 3187 3186 3184 3183 3181 3179 3176 3174
3146 3148 3149 3151 3151 3153 3154 3158 3156 3164 3160 3161 3163 3162 3163 3166 3170 3173 3175 3178 3181 3183 3186 3187 3188 3189 3190 3191 3190 3192 3192 3192 3193 3194 3192 3192 3192 3190 3189 3188 3186 3184 3183 3182 3181 3179 3177 3175 3173
3147 3148 3149 3150 3152 3154 3152 3158 3160 3162 3161 3163 3162 3163 3164 3167 3170 3173 3177 3179 3181 3184 3185 3186 3187 3187 3188 3188 3190 3190 3191 3191 3190 3191 3190 3190 3190 3187 3186 3185 3183 3182 3180 3179 3177 3176 3174 3171 3169
3146 3147 3148 3152 3152 3152 3154 3156 3159 3162 3163 3162 3161 3163 3165 3168 3172 3175 3177 3180 3181 3182 3184 3184 3184 3185 3186 3187 3188 3187 3188 3188 3189 3189 3189 3188 3186 3184 3182 3181 3180 3179 3177 3175 3173 3171 3169 3167 3165
3145 3147 3149 3151 3151 3154 3156 3158 3161 3163 3164 3162 3162 3165 3167 3169 3173 3175 3177 3180 3182 3183 3184 3185 3184 3185 3186 3185 3185 3186 3186 3187 3187 3187 3187 3184 3183 3181 3179 3177 3176 3174 3172 3170 3168 3166 3164 3162 3159
3143 3145 3146 3147 3152 3155 3158 3159 3161 3164 3166 3165 3165 3166 3168 3171 3174 3176 3178 3180 3182 3184 3184 3184 3183 3183 3182 3183 3184 3184 3185 3185 3184 3184 3184 3182 3181 3178 3175 3173 3171 3169 3166 3164 3162 3160 3157 3155 3153
3143 3145 3145 3147 3153 3155 3158 3160 3162 3164 3166 3166 3167 3168 3170 3172 3174 3176 3178 3180 3182 3183 3182 3181 3181 3181 3181 3180 3180 3180 3182 3181 3182 3180 3178 3178 3176 3174 3171 3168 3165 3163 3160 3158 3155 3152 3148 3147 3144
3144 3145 3146 3149 3152 3155 3158 3160 3161 3163 3166 3167 3168 3169 3171 3173 3174 3175 3176 3178 3180 3180 3180 3179 3178 3178 3177 3177 3175 3174 3176 3177 3178 3175 3174 3172 3171 3169 3165 3162 3160 3157 3153 3149 3147 3144 3142 3138 3135
3143 3145 3147 3150 3153 3155 3159 3159 3161 3162 3164 3166 3167 3169 3170 3172 3173 3174 3175 3176 3177 3177 3177 3177 3176 3175 3174 3171 3170 3165 3165 3170 3170 3169 3168 3167 3165 3162 3160 3157 3154 3150 3147 3143 3140 3137 3133 3129 3125
3144 3145 3147 3150 3154 3155 3156 3157 3158 3160 3162 3164 3166 3168 3169 3171 3172 3173 3174 3175 3175 3174 3173 3173 3172 3169 3169 3166 3158 3166 3165 3164 3165 3165 3164 3163 3161 3158 3154 3151 3147 3143 3139 3135 3131 3126 3121 3117 3112
3142 3144 3147 3149 3151 3153 3155 3156 3157 3157 3159 3161 3164 3166 3168 3169 3170 3170 3171 3172 3172 3171 3170 3170 3166 3159 3162 3160 3165 3162 3163 3162 3162 3161 3160 3158 3155 3152 3148 3144 3140 3135 3131 3127 3122 3117 3113 3108 3103
3142 3143 3143 3145 3148 3152 3152 3154 3154 3155 3156 3158 3160 3162 3164 3165 3167 3167 3167 3166 3166 3166 3166 3165 3164 3160 3160 3161 3161 3159 3159 3159 3158 3157 3154 3152 3150 3146 3141 3137 3132 3127 3122 3117 3112 3107 3102 3098 3093
3141 3143 3144 3145 3147 3149 3150 3151 3152 3153 3154 3155 3157 3158 3159 3161 3162 3162 3162 3161 3162 3162 3162 3162 3162 3160 3159 3159 3158 3157 3156 3154 3153 3151 3149 3145 3141 3136 3132 3126 3120 3115 3110 3106 3101 3097 3092 3087 3083
3141 3143 3144 3145 3147 3148 3149 3150 3149 3150 3151 3152 3152 3154 3156 3158 3159 3159 3158 3159 3159 3160 3160 3160 3159 3158 3157 3156 3156 3154 3151 3149 3146 3144 3139 3135 3130 3125 3119 3113 3108 3104 3099 3095 3090 3084 3079 3075 3070
3141 3143 3144 3145 3145 3146 3147 3149 3146 3147 3147 3147 3149 3151 3153 3155 3156 3156 3156 3157 3157 3158 3158 3158 3156 3156 3155 3153 3151 3149 3145 3142 3137 3135 3131 3126 3120 3114 3109 3104 3098 3093 3088 3083 3077 3072 3067 3062 3058
3140 3141 3142 3143 3144 3146 3145 3147 3143 3143 3143 3144 3145 3148 3150 3152 3153 3154 3155 3156 3157 3156 3156 3154 3153 3151 3150 3148 3145 3142 3139 3135 3132 3128 3122 3116 3110 3104 3098 3093 3087 3082 3076 3071 3065 3059 3054 3050 3045
3139 3140 3143 3145 3145 3144 3144 3145 3141 3140 3139 3141 3144 3146 3148 3150 3151 3153 3154 3154 3154 3152 3151 3149 3148 3146 3145 3143 3140 3136 3133 3129 3125 3119 3112 3106 3100 3095 3090 3084 3078 3072 3066 3060 3053 3049 3044 3040 3036
3138 3140 3140 3141 3142 3142 3142 3139 3137 3137 3137 3138 3141 3144 3146 3148 3149 3150 3150 3149 3149 3148 3147 3145 3144 3141 3139 3136 3133 3130 3125 3120 3115 3108 3103 3098 3093 3087 3082 3076 3069 3062 3055 3050 3045 3040 3036 3032 3028
3136 3137 3138 3138 3140 3141 3138 3136 3135 3135 3135 3137 3139 3141 3143 3145 3146 3145 3145 3144 3144 3143 3142 3140 3138 3135 3132 3129 3126 3122 3116 3110 3105 3100 3096 3090 3085 3079 3072 3065 3059 3053 3048 3043 3037 3032 3028 3023 3019
3134 3135 3136 3136 3139 3139 3135 3133 3131 3133 3135 3136 3137 3139 3141 3142 3142 3142 3141 3140 3139 3139 3137 3135 3133 3130 3125 3122 3119 3114 3108 3103 3098 3093 3088 3081 3074 3067 3061 3055 3049 3044 3038 3033 3028 3024 3019 3014 3011
3131 3131 3133 3134 3135 3135 3136 3132 3131 3132 3133 3134 3136 3137 3137 3138 3138 3138 3137 3136 3135 3134 3132 3130 3127 3122 3118 3117 3111 3106 3101 3096 3090 3084 3077 3070 3064 3057 3051 3044 3038 3032 3027 3023 3017 3013 3009 3006 3003
3129 3129 3130 3132 3133 3133 3133 3130 3128 3130 3131 3131 3132 3133 3133 3133 3133 3132 3131 3131 3130 3128 3126 3123 3119 3115 3113 3108 3104 3099 3094 3088 3081 3074 3068 3062 3055 3048 3040 3034 3028 3023 3018 3013 3009 3006 3003 3000 2997